FENGYUN 1C DEB, 30017

Orbit data source: Space-Track

FENGYUN 1C DEB, 30017 is space debris in SSO originally from a launch on Mon, 10 May 1999 UTC launched from the Taiyaun Space Center, China (TSC). Fengyun 1C debris stems from the Chinese weather satellite Fengyun-1C, which was intentionally destroyed by a Chinese anti-satellite missile in 2007. This event dramatically increased the amount of space debris, with thousands of trackable fragments posing hazards to satellites and human spaceflight. The Fengyun 1C debris cloud has become a focal point in discussions about space sustainability and the need for international regulations to prevent the creation of new debris.

Loading next visibility...
Identifier
30017, 1999-025MS
Orbit
SSO
Country
Flag of CNCN / PRC
Related business
Manufacturer
Unknown
Mission
Spacecraft
Bus & Motor
Unknown
Mass
Unknown
Launch date (UTC)
1999-05-10 (27 years ago)
Launch vehicle
Unknown
Launch site
Taiyaun Space Center, China (TSC)
Object type
Payload
Rocket body
Debris
Shape & HBR
Unknown shape, 0.1 m
Radar Cross Section
Small (<0.1 m²)

Expand to show TLE details & history
Last TLE update: 11 hours ago

TLE from 11 hours ago
0 FENGYUN 1C DEB
1 30017U 99025MS  26119.64502668  .00001362  00000-0  20518-3 0  9993
2 30017  98.7296 177.1413 0217479 110.4657 252.0036 14.61525091 24583
Epoch: 2026-04-29T15:28Z
TLE epoch observation values (Epoch: 2026-04-29T15:28:50.305Z)
Latitude
Longitude
87.32868°
Altitude
741.71 km
Speed
7.457 km/s
True Right ascension
11h 48m 33s
True Declination
0° 00' 00"
Sunlit
Object was in full shadow at epoch
Visualization orbit readout
Latitude
Unknown
Longitude
Unknown
Altitude
Unknown
Speed
Unknown
Apparent Right ascension
Unknown
Apparent Declination
Unknown
Sunlit
N/A
Visualization observer readout
Local Sidereal Time
09:36:21
Azimuth
Unknown
Elevation
Unknown
Doppler factor
Unknown
Orbital elements
Apogee altitude
838.972 km
Perigee altitude
531.74 km
Semi-major axis
7,063.493 km
Eccentricity
0.02175
Inclination
98.7296°
RAAN
177.1413°
Arg. of periapsis
110.4657°
True anomaly
249.65381°
Mean anomaly
252.0036°
Eccentric anomaly
250.82666°
Mean motion
3.65606 °/min
Orbital period
98.47 mins
BSTAR
0.00020518
Loading maneuver chart data...
Computing Atmospheric mass density...

Documentation

Showing up to 5 results
|